TimeEDT,TemperatureF,Dew PointF,Humidity,Sea Level PressureIn,VisibilityMPH,Wind Direction,Wind SpeedMPH,Gust SpeedMPH,PrecipitationIn,Events,Conditions,WindDirDegrees,DateUTC
12:53 AM,68.0,66.0,93,29.81,9.0,South,3.5,-,N/A,,Clear,190,2012-10-19 04:53:00
1:53 AM,69.1,68.0,96,29.81,10.0,SW,3.5,-,N/A,,Scattered Clouds,220,2012-10-19 05:53:00
2:53 AM,69.1,68.0,96,29.79,10.0,SSW,3.5,-,N/A,,Clear,200,2012-10-19 06:53:00
3:53 AM,68.0,66.9,96,29.76,8.0,South,3.5,-,N/A,,Clear,190,2012-10-19 07:53:00
4:53 AM,68.0,66.9,96,29.75,8.0,South,4.6,-,N/A,,Clear,180,2012-10-19 08:53:00
5:53 AM,69.1,68.0,96,29.77,10.0,SW,6.9,-,N/A,,Clear,220,2012-10-19 09:53:00
6:53 AM,69.1,66.9,93,29.78,9.0,SSW,4.6,-,N/A,,Mostly Cloudy,210,2012-10-19 10:53:00
7:53 AM,69.1,66.9,93,29.79,8.0,West,3.5,-,N/A,,Mostly Cloudy,260,2012-10-19 11:53:00
8:20 AM,69.8,66.2,88,29.80,1.8,West,6.9,-,0.02,Rain,Heavy Rain,260,2012-10-19 12:20:00
8:28 AM,68.0,66.2,94,29.80,1.2,WSW,4.6,-,0.08,Rain,Heavy Rain,240,2012-10-19 12:28:00
8:35 AM,68.0,66.2,94,29.81,2.0,SSW,5.8,-,0.11,Rain,Rain,210,2012-10-19 12:35:00
8:41 AM,68.0,66.2,94,29.81,1.2,SW,4.6,-,0.12,Rain,Light Rain,220,2012-10-19 12:41:00
8:53 AM,68.0,66.9,96,29.80,1.2,SSW,3.5,-,0.24,Rain,Rain,200,2012-10-19 12:53:00
8:55 AM,68.0,66.2,94,29.80,2.0,South,3.5,-,0.01,Rain,Rain,190,2012-10-19 12:55:00
9:05 AM,68.0,66.2,94,29.80,8.0,Calm,Calm,-,0.02,Rain,Light Rain,0,2012-10-19 13:05:00
9:53 AM,69.1,66.9,93,29.79,10.0,Calm,Calm,-,0.02,,Mostly Cloudy,0,2012-10-19 13:53:00
10:53 AM,73.0,66.0,79,29.81,10.0,WSW,3.5,-,N/A,,Mostly Cloudy,250,2012-10-19 14:53:00
11:53 AM,75.0,66.0,73,29.81,10.0,West,6.9,-,N/A,,Overcast,280,2012-10-19 15:53:00
12:30 PM,75.2,66.2,73,29.80,10.0,West,5.8,-,N/A,,Mostly Cloudy,280,2012-10-19 16:30:00
12:53 PM,75.0,64.9,71,29.79,10.0,West,10.4,-,N/A,,Mostly Cloudy,260,2012-10-19 16:53:00
1:46 PM,75.2,64.4,69,29.78,10.0,WSW,5.8,-,N/A,,Overcast,250,2012-10-19 17:46:00
1:53 PM,78.1,66.0,66,29.78,10.0,West,8.1,-,N/A,,Overcast,260,2012-10-19 17:53:00
2:31 PM,78.8,66.2,65,29.76,10.0,West,11.5,-,N/A,,Mostly Cloudy,260,2012-10-19 18:31:00
2:53 PM,78.1,64.9,64,29.75,10.0,WSW,12.7,-,N/A,,Partly Cloudy,250,2012-10-19 18:53:00
3:53 PM,79.0,61.0,54,29.74,10.0,WNW,10.4,-,N/A,,Clear,290,2012-10-19 19:53:00
4:53 PM,78.1,57.0,48,29.75,10.0,WSW,6.9,-,N/A,,Clear,250,2012-10-19 20:53:00
5:53 PM,75.9,55.9,50,29.75,10.0,SW,5.8,-,N/A,,Clear,220,2012-10-19 21:53:00
6:53 PM,66.9,59.0,76,29.75,10.0,SSW,4.6,-,N/A,,Clear,200,2012-10-19 22:53:00
7:53 PM,64.9,57.9,78,29.77,10.0,SW,4.6,-,N/A,,Clear,220,2012-10-19 23:53:00
8:53 PM,66.0,57.0,73,29.78,10.0,SW,4.6,-,N/A,,Clear,220,2012-10-20 00:53:00
9:53 PM,63.0,57.0,81,29.81,10.0,SW,4.6,-,N/A,,Clear,220,2012-10-20 01:53:00
10:53 PM,62.1,55.9,80,29.82,10.0,SW,6.9,-,N/A,,Clear,220,2012-10-20 02:53:00
11:53 PM,62.1,50.0,65,29.82,10.0,SW,6.9,-,N/A,,Clear,230,2012-10-20 03:53:00